This is the latest recevied weather packets stored in our database for station/object OE-11372. If no packets are shown the sender has not sent any weather packets the latest 10 day(s).
| Time | Temp. | Humidity | Pressure | Rain* | Wind** | Luminosity | Snow |
|---|---|---|---|---|---|---|---|
| 1788005475 | 18.33° C | 55% | 853.8 hPa | 0 mm | - | 577 W/m² | - |
| 1788005103 | 17.78° C | 58% | 853.7 hPa | 0 mm | - | 865 W/m² | - |
| 1788004503 | 17.78° C | 59% | 853.7 hPa | 0 mm | - | 848 W/m² | - |
| 1788003676 | 17.22° C | 64% | 853.7 hPa | 0 mm | - | 626 W/m² | - |
| 1788003303 | 17.22° C | 70% | 853.8 hPa | 0 mm | - | 585 W/m² | - |
| 1788002703 | 16.67° C | 70% | 853.8 hPa | 0 mm | - | 708 W/m² | - |
| 1788001876 | 16.67° C | 70% | 853.9 hPa | 0 mm | - | 346 W/m² | - |
| 1788001502 | 15.56° C | 69% | 853.9 hPa | 0 mm | - | 675 W/m² | - |
| 1788000903 | 15.56° C | 71% | 853.9 hPa | 0 mm | - | 412 W/m² | - |
| 1788000076 | 15.56° C | 75% | 853.9 hPa | 0 mm | - | 881 W/m² | - |
| 1787999703 | 15° C | 76% | 853.9 hPa | 0 mm | - | 511 W/m² | - |
| 1787999103 | 15° C | 77% | 853.8 hPa | 0 mm | - | 428 W/m² | - |
| 1787998276 | 15° C | 80% | 853.9 hPa | 0 mm | - | 511 W/m² | - |
| 1787997902 | 14.44° C | 82% | 854.2 hPa | 0 mm | - | 346 W/m² | - |
| 1787997303 | 14.44° C | 83% | 854.1 hPa | 0 mm | - | 412 W/m² | - |
| 1787996476 | 13.89° C | 85% | 854.1 hPa | 0 mm | - | 346 W/m² | - |
| 1787996103 | 13.89° C | 87% | 854.3 hPa | 0 mm | - | 305 W/m² | - |
| 1787995503 | 13.33° C | 87% | 854.2 hPa | 0 mm | - | 305 W/m² | - |
| 1787994676 | 13.89° C | 88% | 854.3 hPa | 0 mm | - | 255 W/m² | - |
| 1787994303 | 13.33° C | 88% | 854.2 hPa | 0 mm | - | 264 W/m² | - |
| 1787993703 | 13.89° C | 84% | 854.4 hPa | 0 mm | - | 255 W/m² | - |
| 1787992875 | 13.89° C | 87% | 854.3 hPa | 0 mm | - | 214 W/m² | - |
| 1787992502 | 13.33° C | 87% | 854.2 hPa | 0 mm | - | 214 W/m² | - |
| 1787991902 | 13.33° C | 87% | 854.4 hPa | 0 mm | - | 132 W/m² | - |
| 1787991076 | 13.33° C | 88% | 854.4 hPa | 0 mm | - | 148 W/m² | - |
* Rain latest hour (hover to see other rain measurements)
** Current wind speed in m/s (hover to see current wind gust speed)